Regional Weather Roundup
Issued by NWS

Home | Current Version | Previous Version | Text Only | Print | Product List | Glossary On
Versions: 1 2 3 4 5 6 7 8 9 10 11 12 13 14 15 16 17 18 19 20 21 22 23 24 25 26 27 28 29 30 31 32 33 34 35 36 37 38 39 40 41 42 43 44 45 46 47 48 49 50
000
ASUS43 KDTX 160701
RWRMI
MICHIGAN HOURLY REGIONAL WEATHER ROUNDUP
NATIONAL WEATHER SERVICE DETROIT/PONTIAC MI
200 AM EST MON JAN 16 2017

NOTE: "FAIR" INDICATES FEW OR NO CLOUDS BELOW 12,000 FEET WITH NO
SIGNIFICANT WEATHER AND/OR OBSTRUCTION TO VISIBILITY.

MIZ047>049-052>055-059>063-066>070-074>076-081>083-160800-
SOUTHEAST LOWER MICHIGAN

CITY           SKY/WX    TMP DP  RH WIND       PRES   REMARKS
ADRIAN         CLOUDY    21  20  96 CALM      30.35R FOG
ALMA           CLOUDY    22  20  93 CALM      30.31S FOG
ANN ARBOR      CLOUDY    16  15  96 CALM      30.33S FOG
BAD AXE        CLOUDY    21  19  91 SW3       30.31R
CARO           CLOUDY    19  18  96 SW3       30.31S FOG
DETROIT CITY   CLOUDY    21  19  92 CALM      30.35F FOG
DETROIT        PTCLDY    20  17  88 CALM      30.36S FOG
FLINT          CLOUDY    23  20  88 S3        30.32F
GROSSE ILE     CLEAR     22  20  91 CALM      30.34S
HILLSDALE      CLOUDY    23  21  93 CALM      30.30S
HOWELL         CLOUDY    20  18  93 CALM      30.31S FOG

CITY           SKY/WX    TMP DP  RH WIND       PRES   REMARKS
JACKSON        CLEAR     20  17  88 S3        30.32R FOG
LAMBERTVILLE   CLOUDY    23  20  90 CALM      30.35R FOG
LANSING        CLOUDY    22  17  81 S5        30.32F HAZE    WCI  16
LAPEER         FAIR      23  21  92 SW3       30.32S
MASON          PTCLDY    23  22  96 CALM      30.32S FOG
MONROE         CLOUDY    21  20  96 CALM      30.34S FOG
MT. CLEMENS    PTCLDY    21  20  96 SW5       30.32F WCI  14
PONTIAC        CLOUDY    21  17  84 CALM      30.31F FOG
PORT HOPE        N/A     23  20  88 CALM      30.30R
PORT HURON     CLOUDY    21  19  93 S3        30.34S
TRI CITIES     CLOUDY    24  22  91 SW3       30.32S FOG
MIDLAND        FAIR      17  14  86 CALM      30.31S
TROY           CLOUDY    24  20  85 CALM      30.35F
SAGINAW HB     CLOUDY    25  21  86 SW3       30.31S
$$
MIZ043>046-050>051-056>058-064>065-071>073-077>080-160800-
SOUTHWEST LOWER MICHIGAN

CITY           SKY/WX    TMP DP  RH WIND       PRES   REMARKS
BATTLE CREEK   CLOUDY    24  21  88 E3        30.30F
BENTON HARBOR  PTCLDY    25  21  85 SE3       30.31S FOG
BIG RAPIDS     CLOUDY    12  10  89 CALM      30.28S
COLDWATER      CLOUDY    22  20  92 CALM      30.31S
FREMONT        FAIR      22  21  97 CALM      30.29S FOG
HOLLAND        CLOUDY    25  20  81 S3        30.31F
GRAND RAPIDS   CLOUDY    21  17  84 S3        30.31S FOG
IONIA          FAIR      23  21  90 S5        30.30F WCI  17
KALAMAZOO      PTCLDY    23  19  85 CALM      30.30F FOG
LUDINGTON      CLOUDY    15  15  96 CALM      30.28S FOG
MARSHALL       PTCLDY    21  19  94 CALM      30.31S
MOUNT PLEASANT CLOUDY    18  16  93 CALM      30.29S FOG
MUSKEGON       CLOUDY    22  20  92 SE3       30.30F FOG
SOUTH HAVEN    CLOUDY    21  20  94 CALM      30.31S FOG
$$
MIZ016>042-160800-
NORTHERN LOWER MICHIGAN

CITY           SKY/WX    TMP DP  RH WIND       PRES   REMARKS
ALPENA         CLOUDY    22  14  71 CALM      30.25S
BELLAIRE       PTCLDY     9   7  92 CALM      30.28S
CADILLAC       CLOUDY    19  17  93 SW5       30.24S WCI  12
CHARLEVOIX     CLOUDY    28  24  85 S5        30.27S WCI  23
FRANKFORT      CLOUDY    16  15  97 CALM      30.27S FOG
GAYLORD        CLOUDY    20  14  77 SW7       30.22S WCI  11
GRAYLING       FOG        3   0  86 CALM      30.26S VSB 1
HARBOR SPRINGS CLOUDY    26  24  89 SW9       30.24S WCI  17
HOUGHTON LAKE  CLOUDY    17  14  88 SW5       30.27R WCI  10
MANISTEE       PTCLDY    12   9  87 E5        30.28F WCI   4
OSCODA         CLEAR     19  16  90 S5        30.28S WCI  12
PELLSTON       CLOUDY    27  21  78 SW9       30.22F WCI  18
ROGERS CITY    CLOUDY    26  16  65 SW14      30.22F WCI  14
TRAVERSE CITY  PTCLDY    24  20  84 SW5       30.26S WCI  18
$$
MIZ007>008-015-160800-
EASTERN UPPER MICHIGAN

CITY           SKY/WX    TMP DP  RH WIND       PRES   REMARKS
KINROSS        CLEAR     28  26  92 SW9       30.17S WCI  19
MACKINAC ISLAN CLEAR     28  25  87 SW14G24   30.19F WCI  17
NEWBERRY       CLOUDY    21  18  87 SW10      30.16S WCI  10
S. S. MARIE    CLEAR     26  23  88 SW5       30.15F WCI  20
$$
MIZ004>006-011>014-085-160800-
CENTRAL UPPER MICHIGAN

CITY           SKY/WX    TMP DP  RH WIND       PRES   REMARKS
MANISTIQUE     CLOUDY    22  16  75 SW8       30.19S WCI  13
ESCANABA       PTCLDY    15  11  83 S6        30.21S WCI   6
SAWYER-GWINN   CLOUDY    20   9  63 S9        30.12S WCI   9
$$
MIZ001>003-009>011-084-160800-
WESTERN UPPER MICHIGAN

CITY           SKY/WX    TMP DP  RH WIND       PRES   REMARKS
IRON MOUNTAIN  PTCLDY    13   5  70 CALM      30.15F
HOUGHTON       CLEAR     27  15  61 W21       30.07S WCI  13
IRONWOOD       CLEAR     20  14  77 S5        30.15S WCI  13
$$

ABBREVIATIONS USED IN REMARKS
   TC - TEMPERATURE IN CELSIUS
  WCI - WIND CHILL INDEX
   HX - HEAT INDEX
  VSB - VISIBILITY





USA.gov is the U.S. government's official web portal to all federal, state and local government web resources and services.